Date String (YYYY-MM-DD hh:mm:ss) UTC,Instrument flags,Ambient pressure (hPa),Sample flow (lpm),Bypass flow (lpm),Sample temperature (°C),Ambient temperature (°C),ASC tube jacket temperature (°C),LED temperature (°C),Box temperature (°C),Sample RH (%),Span deviation,Mass concentration (μg/m³),Mass concentration (μg/m³),Mass concentration (μg/m³)
DateTimeUTC,F1_M11,P_M11,Q1_M11,Q2_M11,T1_M11,T2_M11,T3_M11,T4_M11,T5_M11,U1_M11,ZSPAN_M11,X0_M11,X2_M11,X1_M11
2022-08-02 11:00:00,,0826.0,5.00,0.00,29.8,28.8,00.0,38.5,31.8,24.7,0002.9,0017.15,0010.74,0010.04
2022-08-02 11:01:00,,0826.0,5.00,0.00,29.8,28.3,00.0,38.5,31.7,24.7,0002.8,0016.72,0010.64,0009.97
2022-08-02 11:02:00,,0826.0,4.99,0.00,29.7,27.7,00.0,38.5,31.5,25.1,0002.8,0016.34,0010.59,0009.91
2022-08-02 11:03:00,,0826.0,4.99,0.00,29.7,27.5,00.0,38.4,31.4,24.8,0002.9,0015.24,0010.48,0009.82
2022-08-02 11:04:00,,0825.9,5.01,0.00,29.6,27.5,00.0,38.4,31.3,24.9,0002.9,0015.14,0010.39,0009.72
2022-08-02 11:05:00,,0825.9,5.00,0.00,29.6,27.6,00.0,38.4,31.4,25.2,0002.9,0015.68,0010.30,0009.63
2022-08-02 11:06:00,,0825.9,4.99,0.00,29.6,27.8,00.0,38.4,31.4,25.3,0003.0,0015.46,0010.15,0009.54
2022-08-02 11:07:00,,0826.0,5.00,0.00,29.6,27.9,00.0,38.4,31.4,25.1,0003.0,0015.13,0010.03,0009.45
2022-08-02 11:08:00,,0826.0,4.99,0.00,29.6,28.0,00.0,38.4,31.5,25.0,0002.6,0014.83,0009.94,0009.37
2022-08-02 11:09:00,,0826.0,5.00,0.00,29.6,28.1,00.0,38.4,31.5,25.0,0002.6,0014.75,0009.90,0009.29
2022-08-02 11:10:00,,0825.9,5.00,0.00,29.6,28.2,00.0,38.4,31.5,24.9,0002.9,0014.21,0009.79,0009.22
2022-08-02 11:11:00,,0826.0,5.00,0.00,29.6,28.3,00.0,38.4,31.5,24.9,0002.9,0014.03,0009.74,0009.19
2022-08-02 11:12:00,,0826.0,5.00,0.00,29.6,28.4,00.0,38.4,31.6,25.0,0003.1,0013.96,0009.68,0009.13
2022-08-02 11:13:00,,0826.0,5.00,0.00,29.6,28.5,00.0,38.4,31.6,25.0,0003.3,0013.87,0009.64,0009.08
2022-08-02 11:14:00,,0826.0,5.00,0.00,29.7,28.6,00.0,38.5,31.6,24.8,0003.0,0013.80,0009.57,0009.03
2022-08-02 11:15:00,,0826.0,5.00,0.00,29.7,28.6,00.0,38.5,31.7,24.8,0003.0,0013.12,0009.49,0008.99
2022-08-02 11:16:00,,0826.0,5.01,0.00,29.7,28.7,00.0,38.5,31.7,24.8,0002.5,0012.28,0009.43,0008.96
2022-08-02 11:17:00,,0826.0,5.00,0.00,29.7,28.7,00.0,38.5,31.7,24.8,0002.3,0012.62,0009.43,0008.93
2022-08-02 11:18:00,,0826.0,5.00,0.00,29.8,28.8,00.0,38.5,31.7,24.7,0002.6,0012.79,0009.48,0008.93
2022-08-02 11:19:00,,0826.0,5.00,0.00,29.8,28.8,00.0,38.5,31.8,24.8,0002.9,0012.87,0009.49,0008.92
2022-08-02 11:20:00,,0826.0,4.99,0.00,29.8,28.9,00.0,38.6,31.8,25.1,0002.8,0012.78,0009.46,0008.92
2022-08-02 11:21:00,,0826.0,5.00,0.00,29.8,28.6,00.0,38.6,31.7,24.9,0002.9,0013.18,0009.46,0008.93
2022-08-02 11:22:00,,0826.0,5.00,0.00,29.8,27.9,00.0,38.5,31.6,24.9,0003.1,0013.45,0009.46,0008.92
2022-08-02 11:23:00,,0826.0,4.99,0.00,29.8,27.6,00.0,38.5,31.5,24.8,0002.6,0013.45,0009.44,0008.92
2022-08-02 11:24:00,,0826.0,5.00,0.00,29.7,27.6,00.0,38.5,31.4,24.9,0002.3,0013.48,0009.43,0008.92
2022-08-02 11:25:00,,0826.0,4.99,0.00,29.6,27.6,00.0,38.5,31.4,25.0,0002.6,0013.51,0009.47,0008.93
2022-08-02 11:26:00,,0826.0,5.02,0.00,29.6,27.8,00.0,38.5,31.4,25.0,0002.7,0013.60,0009.50,0008.95
2022-08-02 11:27:00,,0826.1,5.00,0.00,29.6,27.9,00.0,38.5,31.5,25.0,0002.9,0013.53,0009.52,0008.94
2022-08-02 11:28:00,,0826.1,5.00,0.00,29.6,28.0,00.0,38.5,31.5,25.0,0002.6,0013.53,0009.52,0008.95
2022-08-02 11:29:00,,0826.2,5.00,0.00,29.6,28.1,00.0,38.5,31.5,25.0,0002.6,0013.72,0009.53,0008.96
2022-08-02 11:30:00,,0826.2,5.00,0.00,29.6,28.3,00.0,38.5,31.5,25.1,0002.4,0013.73,0009.53,0008.96
2022-08-02 11:31:00,,0826.2,5.00,0.00,29.7,28.4,00.0,38.5,31.6,25.1,0002.7,0013.65,0009.51,0008.95
2022-08-02 11:32:00,,0826.2,5.00,0.00,29.7,28.4,00.0,38.5,31.6,25.1,0002.4,0013.52,0009.53,0008.95
2022-08-02 11:33:00,,0826.1,5.01,0.00,29.7,28.5,00.0,38.5,31.6,25.0,0002.3,0013.33,0009.55,0008.95
2022-08-02 11:34:00,,0826.2,4.99,0.00,29.7,28.6,00.0,38.5,31.7,24.9,0002.5,0013.31,0009.56,0008.97
2022-08-02 11:35:00,,0826.1,5.01,0.00,29.7,28.7,00.0,38.5,31.7,24.7,0002.6,0013.53,0009.64,0009.04
2022-08-02 11:36:00,,0826.2,5.00,0.00,29.8,28.7,00.0,38.5,31.7,24.6,0002.6,0013.76,0009.73,0009.11
2022-08-02 11:37:00,,0826.2,5.00,0.00,29.8,28.8,00.0,38.5,31.7,24.4,0002.7,0013.82,0009.82,0009.21
2022-08-02 11:38:00,,0826.1,5.00,0.00,29.8,28.8,00.0,38.6,31.8,24.2,0002.8,0014.40,0009.95,0009.36
2022-08-02 11:39:00,,0826.2,5.00,0.00,29.8,28.3,00.0,38.5,31.6,24.3,0003.1,0014.82,0010.08,0009.50
2022-08-02 11:40:00,,0826.2,5.00,0.00,29.7,27.7,00.0,38.5,31.5,24.4,0002.8,0014.54,0010.17,0009.61
2022-08-02 11:41:00,,0826.2,4.99,0.00,29.7,27.6,00.0,38.5,31.4,24.4,0002.6,0014.73,0010.33,0009.78
2022-08-02 11:42:00,,0826.2,5.01,0.00,29.6,27.6,00.0,38.5,31.4,24.5,0002.3,0015.08,0010.54,0009.96
2022-08-02 11:43:00,,0826.2,4.99,0.00,29.6,27.7,00.0,38.4,31.4,24.4,0002.1,0015.61,0010.69,0010.12
2022-08-02 11:44:00,,0826.2,4.99,0.00,29.6,27.8,00.0,38.4,31.4,24.4,0002.0,0015.63,0010.84,0010.28
2022-08-02 11:45:00,,0826.1,5.00,0.00,29.6,27.9,00.0,38.4,31.4,24.6,0002.0,0016.09,0010.98,0010.41
2022-08-02 11:46:00,,0826.1,5.01,0.00,29.6,28.0,00.0,38.4,31.5,24.5,0002.1,0016.33,0011.04,0010.50
2022-08-02 11:47:00,,0826.1,4.99,0.00,29.6,28.2,00.0,38.4,31.5,24.5,0002.2,0016.17,0011.08,0010.57
2022-08-02 11:48:00,,0826.2,5.00,0.00,29.6,28.3,00.0,38.4,31.5,24.6,0002.2,0016.18,0011.11,0010.61
2022-08-02 11:49:00,,0826.2,5.00,0.00,29.6,28.4,00.0,38.4,31.6,24.6,0002.3,0015.78,0011.10,0010.59
2022-08-02 11:50:00,,0826.2,5.01,0.00,29.6,28.4,00.0,38.5,31.6,24.5,0002.3,0015.61,0011.12,0010.57
2022-08-02 11:51:00,,0826.2,5.00,0.00,29.7,28.5,00.0,38.5,31.6,24.5,0002.3,0015.59,0011.11,0010.57
2022-08-02 11:52:00,,0826.1,5.00,0.00,29.7,28.6,00.0,38.5,31.7,24.4,0002.3,0016.12,0011.09,0010.55
2022-08-02 11:53:00,,0826.1,5.00,0.00,29.7,28.7,00.0,38.5,31.7,24.4,0002.4,0016.20,0011.03,0010.50
2022-08-02 11:54:00,,0826.1,5.00,0.00,29.7,28.7,00.0,38.5,31.7,24.3,0002.9,0015.67,0010.99,0010.48
2022-08-02 11:55:00,,0826.1,5.01,0.00,29.8,28.8,00.0,38.5,31.8,24.3,0003.0,0015.72,0010.97,0010.45
2022-08-02 11:56:00,,0826.2,5.00,0.00,29.8,28.8,00.0,38.5,31.7,24.3,0003.0,0015.40,0010.93,0010.43
2022-08-02 11:57:00,,0826.2,5.01,0.00,29.8,28.7,00.0,38.6,31.8,24.2,0003.0,0014.86,0010.90,0010.39
2022-08-02 11:58:00,,0826.2,4.98,0.00,29.8,28.0,00.0,38.5,31.6,24.2,0003.0,0014.83,0010.89,0010.38
2022-08-02 11:59:00,,0826.1,5.01,0.00,29.8,27.6,00.0,38.5,31.5,24.2,0002.8,0014.78,0010.88,0010.38
